Regional Weather Roundup
Issued by NWS

Home | Current Version | Previous Version | Graphics & Text | Print | Product List | Glossary On
Versions: 1 2 3 4 5 6 7 8 9 10 11 12 13 14 15 16 17 18 19 20 21 22 23 24 25 26 27 28 29 30 31 32 33 34 35 36 37 38 39 40 41 42 43 44 45 46 47 48 49 50
000
ASUS43 KDTX 192101
RWRMI
MICHIGAN HOURLY REGIONAL WEATHER ROUNDUP
NATIONAL WEATHER SERVICE DETROIT/PONTIAC MI
500 PM EDT TUE SEP 19 2017

NOTE: "FAIR" INDICATES FEW OR NO CLOUDS BELOW 12,000 FEET WITH NO
SIGNIFICANT WEATHER AND/OR OBSTRUCTION TO VISIBILITY.

MIZ047>049-052>055-059>063-066>070-074>076-081>083-192200-
SOUTHEAST LOWER MICHIGAN

CITY           SKY/WX    TMP DP  RH WIND       PRES   REMARKS
ADRIAN         CLOUDY    71  65  81 SE7       29.95F
ALMA           CLOUDY    71  60  68 NE9       29.97F
ANN ARBOR      CLOUDY    72  67  84 E8        29.95F
BAD AXE        CLOUDY    69  65  87 NE6       29.99S
CARO           CLOUDY    70  64  82 E5        29.97S
DETROIT CITY   LGT RAIN  70  68  93 SE5       29.96F FOG
DETROIT        LGT RAIN  70  68  93 SE5       29.96F FOG
FLINT          CLOUDY    69  64  84 NE3       29.96F
GROSSE ILE     DRIZZLE   69  67  93 CALM      29.95S
HILLSDALE      LGT RAIN  68  64  88 E6        29.94F
HOWELL         CLOUDY    69  65  89 NE5       29.96F FOG

CITY           SKY/WX    TMP DP  RH WIND       PRES   REMARKS
JACKSON        CLOUDY    71  64  78 NE5       29.95S
LAMBERTVILLE   CLOUDY    72  69  89 E3        29.94S FOG
LANSING        CLOUDY    71  61  70 NE7       29.96F
LAPEER         CLOUDY    71  65  82 CALM      29.97F
MASON          CLOUDY    72  65  79 E3        29.95F
MONROE         LGT RAIN  71  68  90 E3        29.94F
MT. CLEMENS    LGT RAIN  70  70 100 CALM      29.94F FOG
PONTIAC        CLOUDY    71  67  87 E8        29.95F
PORT HOPE        N/A     67  64  90 NE9       29.98F
PORT HURON     CLOUDY    72  66  83 CALM      29.97S
TRI CITIES     CLOUDY    71  65  81 NE10      29.98S
MIDLAND        CLOUDY    70  63  78 E6        29.97F
TROY           CLOUDY    70  68  94 CALM      29.97F
SAGINAW HB     CLOUDY    68  63  83 N8        29.97S
$$
MIZ043>046-050>051-056>058-064>065-071>073-077>080-192200-
SOUTHWEST LOWER MICHIGAN

CITY           SKY/WX    TMP DP  RH WIND       PRES   REMARKS
BATTLE CREEK   CLOUDY    72  64  76 E8        29.94F
BENTON HARBOR  CLOUDY    73  62  68 N7        29.93S
BIG RAPIDS     CLOUDY    73  58  58 E7        29.97F
COLDWATER      DRIZZLE   67  67 100 E3        29.94S
FREMONT        CLOUDY    73  60  63 E5        29.96F
HOLLAND        MOSUNNY   77  61  57 VRB3      29.95S
GRAND RAPIDS   PTSUNNY   74  61  63 NE9       29.95F
IONIA          FAIR      72  59  63 NE8       29.95S
KALAMAZOO      CLOUDY    72  62  71 VRB5      29.94S
LUDINGTON      MOSUNNY   74  58  58 NW6       29.95F
MARSHALL       CLOUDY    68  67  96 N3        29.94F FOG
MOUNT PLEASANT CLOUDY    72  61  68 NE8       29.97F
MUSKEGON       MOSUNNY   77  60  55 E8        29.95F
SOUTH HAVEN    CLOUDY    73  65  74 E5        29.94S
$$
MIZ016>042-192200-
NORTHERN LOWER MICHIGAN

CITY           SKY/WX    TMP DP  RH WIND       PRES   REMARKS
ALPENA         PTSUNNY   67  59  75 NE8       30.03F
BEAVER ISLAND  SUNNY     70  56  62 E9        30.00F
BELLAIRE       MOSUNNY   76  49  39 E3        29.98F
CADILLAC       SUNNY     76  42  29 E8        29.99S
CHARLEVOIX     SUNNY     74  53  46 E7        30.01F
FRANKFORT      SUNNY     74  56  53 NW7       29.96F
GAYLORD        SUNNY     71  51  49 VRB6      30.01F
GRAYLING       SUNNY     73  53  48 NE5       30.00F
HARBOR SPRINGS SUNNY     73  51  45 NE10      29.99F
HOUGHTON LAKE  CLOUDY    72  56  57 SE9       30.00F
MANISTEE       SUNNY     74  55  51 NW10      29.96F
OSCODA         CLOUDY    67  59  76 NE10      29.99F
PELLSTON       SUNNY     72  57  59 NE13      30.01F
ROGERS CITY    CLOUDY    65  58  75 E9        30.04F
TRAVERSE CITY  PTSUNNY   75  51  43 NE7       29.96F
$$
MIZ007>008-015-192200-
EASTERN UPPER MICHIGAN

CITY           SKY/WX    TMP DP  RH WIND       PRES   REMARKS
KINROSS        SUNNY     71  40  32 SE13      30.03F
MACKINAC ISLAN SUNNY     66  54  65 E14       30.02F
NEWBERRY       SUNNY     71  37  29 SE12      30.01F
S. S. MARIE    SUNNY     72  46  39 SE9       30.02F
MUNISING         N/A     73  53  49 SW6       29.98F
$$
MIZ004>006-011>014-085-192200-
CENTRAL UPPER MICHIGAN

CITY           SKY/WX    TMP DP  RH WIND       PRES   REMARKS
MANISTIQUE     SUNNY     69  54  60 SE9       30.01S
ESCANABA       SUNNY     67  57  70 SE9       29.99F
MENOMINEE      SUNNY     70  59  68 SE8       29.98F
SAWYER-GWINN   MOSUNNY   72  54  53 SE12      30.00F
$$
MIZ001>003-009>011-084-192200-
WESTERN UPPER MICHIGAN

CITY           SKY/WX    TMP DP  RH WIND       PRES   REMARKS
IRON MOUNTAIN  MOSUNNY   71  56  58 SE8       29.97F
HOUGHTON       SUNNY     66  53  63 E13       29.96F
COPPER HARBOR    N/A     68  51  54 VRB6      29.97F
IRONWOOD       CLOUDY    74  57  55 SE9       29.90F
$$

ABBREVIATIONS USED IN REMARKS
   TC - TEMPERATURE IN CELSIUS
  WCI - WIND CHILL INDEX
   HX - HEAT INDEX
  VSB - VISIBILITY





USA.gov is the U.S. government's official web portal to all federal, state and local government web resources and services.